カタログに戻る

HULIANWANG DIGUI-95

運用中通信LEO
NORAD 66003·PAYLOAD·🇨🇳 China

打ち上げ Oct 16, 2025 から Wenchang Space Launch Site

Loading…

次のパス (今後24時間)

TLE

最新Source: Space-Track

元期: Sep 14, 2026, 13:40 UTC

1 66003U 25231J   26257.57011361 -.00000097  00000-0  57337-4 0  9990
2 66003  50.0019 214.8159 0000310  33.6585 326.4307 13.29327300 44784

AllMySatでHULIANWANG DIGUI-95をリアルタイム追跡

Download on the App Store